Location: De Har
(53.3413°N, 6.6858°E)
Time: 20:57:58
(UTC+00:00)

Envisat - Pass Details

Date: 22 April 2026
Orbit: 761 x 762 km, 98.4° (Epoch: 21 May)

Event Time Altitude Azimuth Distance (km) Brightness Sun altitude
Rises 03:29:14 0° 10° (N) 3,240 6.9 -7.4°
Reaches altitude 10° 03:31:43 10° 1° (N) 2,309 6.0 -7.1°
Maximum altitude 03:36:15 34° 298° (WNW) 1,249 3.9 -6.5°
Drops below altitude 10° 03:40:45 10° 235° (SW) 2,294 4.8 -5.9°
Enters shadow 03:41:32 - 232° (SW) 2,578 5.1 -5.8°
